Location: D�derode
(51.8092°N, 10.1065°E)
Time: 23:52:25
(UTC+00:00)

Cosmos 1812 - Pass Details

Date: 18 April 2021
Orbit: 516 x 519 km, 82.5° (Epoch: 10 May)

Event Time Altitude Azimuth Distance (km) Brightness Sun altitude
Exits shadow 00:59:34 20° 304° (NW) 1,249 4.7 -23.7°
Drops below altitude 10° 01:02:02 10° 343° (NNW) 1,766 6.0 -23.5°
Sets 01:04:37 0° 0° (N) 2,660 7.3 -23.3°
